Location: Gleizolles
(44.4833°N, 6.7667°E)
Time: 16:19:32
(UTC+00:00)

Altair - Pass Details

Date: 25 June 2024
Orbit: 1502 x 1681 km, 47.2° (Epoch: 13 July)

Event Time Altitude Azimuth Distance (km) Brightness Sun altitude
Rises 02:07:43 0° 256° (WSW) 4,637 - -13.8°
Exits shadow 02:09:11 - 257° (WSW) 4,157 9.3 -13.6°
Reaches altitude 10° 02:10:42 10° 258° (WSW) 3,666 9.0 -13.5°
Maximum altitude 02:19:59 82° 346° (NNW) 1,555 7.6 -12.5°
Drops below altitude 10° 02:29:36 10° 75° (ENE) 3,787 10.4 -11.4°
Sets 02:32:45 0° 77° (ENE) 4,797 11.1 -11.0°
